Location: Waldport
(44.4270°N, 124.0680°W)
Time: 09:21:16
(UTC-08:00)

Amateur Radio Satellites - All Passes

Search period start: 21 December 2014 08:51
Search period end: 22 December 2014 08:51
Location: Waldport, 44.4270°N, 124.0680°W

Satellite Date Start Highest point End Downlink Frequencies (MHz)
Time Altitude Azimuth
TIGRISAT 21 Dec 08:52:41 08:55:28 17° 62° (ENE) 08:58:19 435.000
BRITE-PL 21 Dec 08:53:24 08:57:59 50° 100° (E) 09:02:55 437.365/2234.400
MaSat-1 21 Dec 08:55:14 08:57:31 87° 102° (ESE) 08:59:43 437.345
YUBILEINY 21 Dec 08:59:58 09:04:57 16° 56° (NE) 09:09:56 435.215
BUGSAT 1 21 Dec 09:09:04 09:10:39 12° 61° (ENE) 09:12:14 437.445
Oscar 11 21 Dec 09:11:02 09:14:26 22° 93° (E) 09:17:48 145.826/435.025
DANDE 21 Dec 09:11:25 09:14:32 26° 86° (E) 09:18:29 436.750
DUCHIFAT 1 21 Dec 09:12:36 09:15:17 17° 63° (ENE) 09:17:58 145.980
HO-68 21 Dec 09:12:50 09:19:58 66° 103° (ESE) 09:27:02 435.675
GOMX 1 21 Dec 09:16:06 09:20:49 61° 101° (E) 09:25:51 467.674
AAUSAT CUBESAT 2 21 Dec 09:20:09 09:24:19 52° 100° (E) 09:28:26 437.432
UKube-1 21 Dec 09:20:19 09:23:26 19° 93° (E) 09:26:32 .
UNISAT 6 21 Dec 09:20:56 09:24:49 31° 68° (ENE) 09:28:48 437.425
QB50P2 21 Dec 09:25:59 09:29:19 23° 66° (ENE) 09:32:40 145.880/145.840
POLYITAN 1 21 Dec 09:34:47 09:38:23 28° 68° (ENE) 09:42:00 437.675
CUBEBUG 2 21 Dec 09:35:52 09:39:52 28° 95° (E) 09:43:54 437.445
NANOSAT C BR1 21 Dec 09:36:16 09:39:53 29° 68° (ENE) 09:43:31 145.865
CANX-2 21 Dec 09:36:34 09:40:51 61° 286° (WNW) 09:45:05 2200.000
DOVE 4 21 Dec 09:37:51 09:42:38 75° 102° (ESE) 09:47:41 437.250
ZACube-1 21 Dec 09:43:14 09:46:54 24° 94° (E) 09:50:36 437.345
VELOX 1 21 Dec 09:48:56 09:51:15 14° 90° (E) 09:53:32 145.980
QB50P1 21 Dec 09:50:26 09:54:22 40° 70° (ENE) 09:58:20 145.935-145.965
ANTELSAT 21 Dec 09:52:22 09:56:43 66° 74° (ENE) 10:01:12 437.575/2403.000
COMPASS 1 21 Dec 09:56:07 10:00:18 55° 287° (WNW) 10:04:27 437.405
CINEMA 3 21 Dec 09:57:24 10:02:09 72° 102° (ESE) 10:07:03 145.822/145.860
CUSAT 1 21 Dec 09:57:46 10:01:32 75° 282° (WNW) 10:06:42 437.405
SEEDS 21 Dec 10:02:56 10:06:58 40° 289° (WNW) 10:10:58 437.485
DELFI C3 21 Dec 10:07:37 10:11:45 74° 102° (ESE) 10:15:51 145.870
CUTE 1.7 + AOD 2 21 Dec 10:07:37 10:11:28 32° 291° (WNW) 10:15:17 437.475
FUNcube-1 21 Dec 10:09:16 10:13:35 43° 98° (E) 10:17:57 145.935
50 SAT 21 Dec 10:09:22 10:12:25 20° 93° (E) 10:15:27 437.505
O/OREOS (USA 219) 21 Dec 10:11:28 10:15:58 64° 64° (ENE) 10:20:28 437.305
UWE-3 21 Dec 10:11:59 10:16:31 55° 100° (E) 10:21:05 435.000/436.395/437.385
POPSAT HIP 1 21 Dec 10:18:56 10:23:08 82° 75° (ENE) 10:27:22 437.405
DX 1 21 Dec 10:25:18 10:29:40 85° 285° (WNW) 10:34:01 434.975-435.025
TIGRISAT 21 Dec 10:27:30 10:31:46 55° 260° (W) 10:36:11 435.000
AISAT 21 Dec 10:31:10 10:35:20 39° 98° (E) 10:39:30 437.250
BRITE-PL 21 Dec 10:32:47 10:36:14 21° 295° (WNW) 10:39:53 437.365/2234.400
CUBEBUG 1 21 Dec 10:35:05 10:37:51 16° 92° (E) 10:40:36 437.445
HUMSAT D 21 Dec 10:37:11 10:41:24 49° 99° (E) 10:45:37 437.325/437.525
BUGSAT 1 21 Dec 10:41:33 10:45:37 69° 258° (WSW) 10:49:41 437.445
Oscar 11 21 Dec 10:46:40 10:50:43 37° 290° (WNW) 10:54:44 145.826/435.025
DUCHIFAT 1 21 Dec 10:46:42 10:50:46 49° 260° (W) 10:54:52 145.980
DANDE 21 Dec 10:54:49 10:58:00 24° 296° (WNW) 11:02:01 436.750
YUBILEINY 21 Dec 10:54:52 11:03:35 72° 79° (E) 11:12:15 435.215
GOMX 1 21 Dec 10:55:24 10:58:34 18° 296° (WNW) 11:01:50 467.674
UKube-1 21 Dec 10:55:41 10:59:47 42° 290° (WNW) 11:03:51 .
AAUSAT CUBESAT 2 21 Dec 10:56:57 10:59:34 16° 297° (WNW) 11:02:11 437.432
UNISAT 6 21 Dec 10:57:54 11:01:37 27° 266° (W) 11:05:26 437.425
QB50P2 21 Dec 11:01:13 11:05:04 34° 263° (W) 11:08:56 145.880/145.840
HO-68 21 Dec 11:01:19 11:07:09 28° 303° (WNW) 11:12:57 435.675
POLYITAN 1 21 Dec 11:10:41 11:14:17 27° 265° (W) 11:17:55 437.675
NANOSAT C BR1 21 Dec 11:12:10 11:15:43 27° 265° (W) 11:19:19 145.865
CUBEBUG 2 21 Dec 11:12:24 11:16:34 34° 291° (WNW) 11:20:48 437.445
DOVE 4 21 Dec 11:17:14 11:19:54 15° 298° (WNW) 11:22:38 437.250
ZACube-1 21 Dec 11:19:11 11:23:22 37° 290° (WNW) 11:27:35 437.345
RS-15 21 Dec 11:22:58 11:33:19 52° 112° (ESE) 11:43:41 29.354- 29.394
VELOX 1 21 Dec 11:23:51 11:28:13 61° 287° (WNW) 11:32:35 145.980
QB50P1 21 Dec 11:27:26 11:30:26 19° 267° (W) 11:33:27 145.935-145.965
ESTCUBE 1 21 Dec 11:29:27 11:33:56 65° 102° (ESE) 11:38:23 437.505/2401.250
ANTELSAT 21 Dec 11:32:01 11:34:01 13° 271° (W) 11:36:03 437.575/2403.000
TISAT 1 21 Dec 11:33:17 11:36:06 17° 92° (E) 11:38:55 437.305
CINEMA 3 21 Dec 11:36:07 11:38:50 15° 298° (WNW) 11:41:36 145.822/145.860
SPROUT 21 Dec 11:39:17 11:42:23 19° 93° (E) 11:45:29 437.525
Oscar 19 21 Dec 11:42:45 11:46:35 22° 62° (ENE) 11:50:26 437.125/150
50 SAT 21 Dec 11:43:54 11:47:46 38° 289° (WNW) 11:51:37 437.505
DELFI C3 21 Dec 11:45:00 11:46:26 12° 299° (WNW) 11:47:51 145.870
FUNcube-1 21 Dec 11:46:13 11:49:41 22° 295° (WNW) 11:53:09 145.935
UWE-3 21 Dec 11:49:33 11:52:40 18° 297° (WNW) 11:55:48 435.000/436.395/437.385
O/OREOS (USA 219) 21 Dec 11:52:32 11:54:49 14° 261° (W) 11:57:06 437.305
ITAMSAT 1 21 Dec 12:02:19 12:04:40 13° 56° (ENE) 12:07:00 435.822/435.867
DX 1 21 Dec 12:05:02 12:05:11 10° 302° (WNW) 12:05:20 434.975-435.025
AISAT 21 Dec 12:08:18 12:11:45 23° 295° (WNW) 12:15:12 437.250
CUBEBUG 1 21 Dec 12:10:19 12:14:30 49° 288° (WNW) 12:18:40 437.445
HUMSAT D 21 Dec 12:13:56 12:16:51 18° 296° (WNW) 12:19:45 437.325/437.525
BEESAT 3 21 Dec 12:33:24 12:36:38 23° 113° (ESE) 12:39:55 437.485
SWISSCUBE 21 Dec 12:44:28 12:47:39 18° 91° (E) 12:50:48 437.505
ITUPSAT 1 21 Dec 12:45:29 12:48:28 16° 91° (E) 12:51:25 437.325
AIST 2 21 Dec 12:46:56 12:49:06 14° 109° (ESE) 12:51:17 435.215
YUBILEINY 21 Dec 12:52:49 12:59:32 26° 280° (W) 13:06:16 435.215
ESTCUBE 1 21 Dec 13:07:46 13:10:17 15° 299° (WNW) 13:12:49 437.505/2401.250
TISAT 1 21 Dec 13:08:08 13:12:10 45° 289° (WNW) 13:16:11 437.305
BEESAT 21 Dec 13:08:35 13:12:41 28° 95° (E) 13:16:45 436.000
ISS 21 Dec 13:09:04 13:11:56 27° 138° (SE) 13:14:48 145.825
BEESAT 2 21 Dec 13:13:14 13:17:14 52° 120° (ESE) 13:21:18 435.950
SPROUT 21 Dec 13:14:36 13:18:39 41° 289° (WNW) 13:22:42 437.525
Oscar 19 21 Dec 13:20:29 13:25:31 55° 260° (W) 13:30:37 437.125/150
PCSat 21 Dec 13:22:46 13:27:50 43° 113° (ESE) 13:32:56 145.827
AUBIESAT-1 21 Dec 13:31:30 13:33:24 13° 93° (E) 13:35:14 437.475
RS-15 21 Dec 13:35:02 13:45:39 54° 317° (NW) 13:56:27 29.354- 29.394
ITAMSAT 1 21 Dec 13:38:11 13:43:22 86° 75° (ENE) 13:48:35 435.822/435.867
Gurwin Techsat 1B 21 Dec 13:39:03 13:44:12 55° 71° (ENE) 13:49:24 435.225
AO-7 21 Dec 13:48:30 13:55:09 28° 52° (NE) 14:01:48 29.400- 29.500
STARS 21 Dec 13:53:07 13:53:58 10° 88° (E) 13:54:48 437.465
M-CUBED/EXP-1 PRIME 21 Dec 13:56:30 14:00:12 27° 99° (E) 14:03:36 437.505
KKS-1 21 Dec 13:57:01 14:00:06 18° 92° (E) 14:03:11 437.445
BEESAT 3 21 Dec 14:10:42 14:14:35 40° 311° (NW) 14:18:33 437.485
SWISSCUBE 21 Dec 14:21:11 14:25:51 54° 289° (WNW) 14:30:28 437.505
ITUPSAT 1 21 Dec 14:22:03 14:26:45 59° 288° (WNW) 14:31:25 437.325
AIST 2 21 Dec 14:22:56 14:27:10 68° 307° (NW) 14:31:28 435.215
HORYU 2 21 Dec 14:27:14 14:31:38 61° 73° (ENE) 14:36:05 437.375
ISS 21 Dec 14:45:10 14:48:23 48° 336° (NNW) 14:51:36 145.825
BEESAT 21 Dec 14:46:15 14:50:34 34° 292° (WNW) 14:54:50 436.000
BEESAT 2 21 Dec 14:52:31 14:55:46 22° 319° (NW) 14:59:03 435.950
GONETS M04 21 Dec 14:54:35 15:00:31 19° 58° (ENE) 15:06:24
AUBIESAT-1 21 Dec 15:04:34 15:08:54 62° 292° (WNW) 15:12:49 437.475
PCSat 21 Dec 15:06:28 15:11:21 33° 312° (NW) 15:16:16 145.827
JAS-2 21 Dec 15:15:43 15:22:04 32° 63° (ENE) 15:27:55 435.910
Gurwin Techsat 1B 21 Dec 15:20:36 15:24:31 21° 268° (W) 15:28:27 435.225
ITAMSAT 1 21 Dec 15:21:27 15:23:32 12° 272° (W) 15:25:37 435.822/435.867
AIST 1 21 Dec 15:22:36 15:24:49 14° 84° (E) 15:27:01
STARS 21 Dec 15:26:32 15:31:00 80° 285° (WNW) 15:35:26 437.465
M-CUBED/EXP-1 PRIME 21 Dec 15:31:20 15:35:13 31° 299° (WNW) 15:38:48 437.505
KKS-1 21 Dec 15:32:42 15:37:00 47° 289° (WNW) 15:41:17 437.445
AO-7 21 Dec 15:38:47 15:47:07 80° 253° (WSW) 15:55:32 29.400- 29.500
RS-15 21 Dec 15:52:19 16:01:14 27° 349° (N) 16:10:21 29.354- 29.394
AIST 2 21 Dec 16:04:31 16:06:36 13° 327° (NNW) 16:08:42 435.215
HORYU 2 21 Dec 16:06:19 16:08:43 14° 270° (W) 16:11:08 437.375
ISS 21 Dec 16:22:47 16:25:30 23° 356° (N) 16:28:12 145.825
Cubesat XI-IV 21 Dec 16:42:44 16:47:14 29° 64° (ENE) 16:51:45 437.490
MOZHAYETS 4 21 Dec 16:49:44 16:54:07 40° 97° (E) 16:58:26
GONETS M04 21 Dec 16:50:01 16:58:51 83° 81° (E) 17:07:34
AIST 1 21 Dec 16:57:40 17:01:58 56° 281° (WNW) 17:06:16
JAS-2 21 Dec 16:59:17 17:06:47 59° 259° (W) 17:13:37 435.910
CUTE-I 21 Dec 17:14:52 17:20:00 52° 70° (ENE) 17:25:10 437.470
AO-7 21 Dec 17:36:19 17:41:10 17° 272° (W) 17:46:04 29.400- 29.500
ISS 21 Dec 17:59:46 18:02:45 30° 16° (NNE) 18:05:42 145.825
HO-68 21 Dec 18:00:22 18:03:28 13° 46° (NE) 18:06:34 435.675
RS-15 21 Dec 18:08:27 18:18:08 33° 24° (NNE) 18:28:07 29.354- 29.394
DANDE 21 Dec 18:09:18 18:10:12 10° 53° (NE) 18:11:07 436.750
CUBESAT XI-V 21 Dec 18:16:27 18:20:14 25° 94° (E) 18:23:59 437.345
Cubesat XI-IV 21 Dec 18:22:09 18:27:09 41° 262° (W) 18:32:11 437.490
MaSat-1 21 Dec 18:23:45 18:25:55 30° 247° (WSW) 18:28:12 437.345
MOZHAYETS 4 21 Dec 18:27:27 18:31:06 23° 295° (WNW) 18:34:44
PRISM 21 Dec 18:44:26 18:48:37 86° 285° (WNW) 18:52:45 437.425
GONETS M04 21 Dec 18:48:25 18:54:32 22° 282° (WNW) 19:00:38
CUSAT 1 21 Dec 18:51:02 18:57:00 24° 64° (ENE) 19:03:26 437.405
STRAND 1 21 Dec 18:54:58 18:59:54 48° 100° (E) 19:04:49 437.568
CUTE-I 21 Dec 18:56:19 19:00:22 22° 267° (W) 19:04:26 437.470
CANX-2 21 Dec 18:57:57 18:59:57 13° 61° (ENE) 19:01:58 2200.000
COMPASS 1 21 Dec 19:16:02 19:18:08 14° 61° (ENE) 19:20:14 437.405
SEEDS 21 Dec 19:22:22 19:25:18 18° 64° (ENE) 19:28:15 437.485
CUTE 1.7 + AOD 2 21 Dec 19:26:58 19:30:21 23° 66° (ENE) 19:33:45 437.475
ISS 21 Dec 19:36:16 19:39:31 64° 214° (SW) 19:42:45 145.825
HO-68 21 Dec 19:42:44 19:49:43 59° 67° (ENE) 19:56:44 435.675
DANDE 21 Dec 19:48:05 19:55:23 46° 73° (ENE) 20:03:37 436.750
DX 1 21 Dec 19:49:33 19:51:12 12° 59° (ENE) 19:52:52 434.975-435.025
CUBESAT XI-V 21 Dec 19:53:33 19:57:45 36° 291° (WNW) 20:01:56 437.345
BEESAT 2 21 Dec 19:55:25 19:56:45 11° 31° (NNE) 19:58:06 435.950
SO-50 21 Dec 19:57:51 20:00:52 18° 110° (ESE) 20:03:57 436.795
BRITE-PL 21 Dec 20:06:50 20:10:56 64° 74° (ENE) 20:15:04 437.365/2234.400
Oscar 11 21 Dec 20:07:49 20:11:09 22° 65° (ENE) 20:14:29 145.826/435.025
AAUSAT CUBESAT 2 21 Dec 20:13:00 20:17:00 44° 71° (ENE) 20:21:03 437.432
UKube-1 21 Dec 20:17:16 20:20:34 22° 64° (ENE) 20:23:53 .
RS-15 21 Dec 20:21:21 20:32:38 77° 53° (NE) 20:44:25 29.354- 29.394
GOMX 1 21 Dec 20:26:45 20:30:52 75° 75° (ENE) 20:35:05 467.674
PCSat 21 Dec 20:26:56 20:29:17 13° 30° (NNE) 20:31:38 145.827
CANX-2 21 Dec 20:31:04 20:35:20 69° 259° (WSW) 20:39:38 2200.000
CUSAT 1 21 Dec 20:33:04 20:40:51 88° 261° (W) 20:49:25 437.405
STRAND 1 21 Dec 20:34:49 20:38:47 23° 297° (WNW) 20:42:45 437.568
CUBEBUG 2 21 Dec 20:36:33 20:40:04 26° 67° (ENE) 20:43:40 437.445
ZACube-1 21 Dec 20:41:40 20:44:56 22° 65° (ENE) 20:48:16 437.345
DOVE 4 21 Dec 20:45:57 20:50:06 89° 76° (ENE) 20:54:21 437.250
VELOX 1 21 Dec 20:48:40 20:51:30 17° 62° (ENE) 20:54:20 145.980
COMPASS 1 21 Dec 20:49:08 20:53:19 65° 259° (W) 20:57:34 437.405
BEESAT 3 21 Dec 20:50:55 20:54:33 28° 44° (NE) 20:58:09 437.485
SEEDS 21 Dec 20:56:42 21:00:47 45° 261° (W) 21:04:55 437.485
DELFI C3 21 Dec 20:57:38 21:01:40 57° 73° (ENE) 21:05:45 145.870
50 SAT 21 Dec 21:00:06 21:02:38 16° 64° (ENE) 21:05:11 437.505
CINEMA 3 21 Dec 21:01:24 21:05:33 77° 75° (ENE) 21:09:51 145.822/145.860
CUTE 1.7 + AOD 2 21 Dec 21:02:11 21:06:06 35° 263° (W) 21:10:03 437.475
AIST 2 21 Dec 21:05:34 21:08:49 20° 40° (NE) 21:12:01 435.215
FUNcube-1 21 Dec 21:07:13 21:11:07 39° 70° (ENE) 21:15:08 145.935
UWE-3 21 Dec 21:11:14 21:15:18 52° 72° (ENE) 21:19:30 435.000/436.395/437.385
DX 1 21 Dec 21:22:29 21:26:50 79° 257° (WSW) 21:31:12 434.975-435.025
AISAT 21 Dec 21:31:01 21:35:12 44° 70° (ENE) 21:39:24 437.250
HUMSAT D 21 Dec 21:31:12 21:35:07 42° 71° (ENE) 21:39:06 437.325/437.525
DANDE 21 Dec 21:31:36 21:38:53 46° 268° (W) 21:46:58 436.750
HO-68 21 Dec 21:31:43 21:37:48 29° 266° (W) 21:43:55 435.675
BEESAT 2 21 Dec 21:31:47 21:35:56 56° 52° (NE) 21:40:01 435.950
CUBEBUG 1 21 Dec 21:33:23 21:36:23 18° 64° (ENE) 21:39:22 437.445
SO-50 21 Dec 21:36:24 21:40:55 60° 309° (NW) 21:45:36 436.795
Oscar 11 21 Dec 21:43:02 21:47:05 38° 262° (W) 21:51:10 145.826/435.025
ANTELSAT 21 Dec 21:44:34 21:46:55 14° 89° (E) 21:49:15 437.575/2403.000
BRITE-PL 21 Dec 21:48:52 21:49:58 11° 271° (W) 21:51:04 437.365/2234.400
AAUSAT CUBESAT 2 21 Dec 21:50:06 21:52:54 17° 268° (W) 21:55:44 437.432
UKube-1 21 Dec 21:52:26 21:56:30 39° 261° (W) 22:00:35 .
POPSAT HIP 1 21 Dec 22:04:50 22:06:33 12° 89° (E) 22:08:16 437.405
YUBILEINY 21 Dec 22:06:06 22:10:44 16° 74° (ENE) 22:15:21 435.215
PCSat 21 Dec 22:08:45 22:14:03 50° 53° (NE) 22:19:18 145.827
CUBEBUG 2 21 Dec 22:13:02 22:16:42 29° 265° (W) 22:20:28 437.445
ZACube-1 21 Dec 22:17:16 22:21:07 35° 263° (W) 22:25:04 437.345
CUSAT 1 21 Dec 22:17:41 22:23:10 21° 277° (W) 22:28:58 437.405
TIGRISAT 21 Dec 22:17:51 22:21:55 28° 95° (E) 22:25:58 435.000
VELOX 1 21 Dec 22:23:20 22:27:40 54° 259° (W) 22:32:01 145.980
BUGSAT 1 21 Dec 22:23:45 22:26:05 15° 92° (E) 22:28:25 437.445
TISAT 1 21 Dec 22:28:04 22:30:50 17° 63° (ENE) 22:33:36 437.305
BEESAT 3 21 Dec 22:28:57 22:32:48 36° 243° (WSW) 22:36:35 437.485
ESTCUBE 1 21 Dec 22:30:42 22:35:13 74° 74° (ENE) 22:39:45 437.505/2401.250
DUCHIFAT 1 21 Dec 22:30:43 22:34:07 23° 94° (E) 22:37:31 145.980
50 SAT 21 Dec 22:33:37 22:37:29 46° 261° (W) 22:41:25 437.505
RS-15 21 Dec 22:34:33 22:44:05 33° 255° (WSW) 22:53:58 29.354- 29.394
DELFI C3 21 Dec 22:35:24 22:37:19 13° 270° (W) 22:39:14 145.870
SPROUT 21 Dec 22:35:40 22:38:43 19° 64° (ENE) 22:41:47 437.525
AIST 2 21 Dec 22:43:34 22:47:50 62° 239° (WSW) 22:52:00 435.215
FUNcube-1 21 Dec 22:44:38 22:47:40 19° 268° (W) 22:50:45 145.935
QB50P2 21 Dec 22:44:59 22:48:52 33° 97° (E) 22:52:45 145.880/145.840
UNISAT 6 21 Dec 22:47:23 22:52:03 56° 100° (E) 22:56:41 437.425
UWE-3 21 Dec 22:49:50 22:52:13 15° 270° (W) 22:54:38 435.000/436.395/437.385
POLYITAN 1 21 Dec 22:54:12 22:58:17 42° 99° (E) 23:02:22 437.675
NANOSAT C BR1 21 Dec 22:55:09 22:59:13 42° 99° (E) 23:03:16 145.865
CUBEBUG 1 21 Dec 23:08:12 23:12:25 47° 261° (W) 23:16:38 437.445
HUMSAT D 21 Dec 23:08:21 23:11:09 17° 268° (W) 23:13:58 437.325/437.525
AISAT 21 Dec 23:08:53 23:12:02 19° 267° (W) 23:15:12 437.250
QB50P1 21 Dec 23:09:43 23:13:57 61° 101° (E) 23:18:10 145.935-145.965
BEESAT 2 21 Dec 23:11:08 23:13:45 16° 249° (WSW) 23:16:21 435.950
ANTELSAT 21 Dec 23:19:28 23:24:11 71° 286° (WNW) 23:28:53 437.575/2403.000
SO-50 21 Dec 23:20:02 23:22:28 14° 330° (NNW) 23:24:56 436.795
POPSAT HIP 1 21 Dec 23:38:38 23:42:53 65° 286° (WNW) 23:47:07 437.405
SWISSCUBE 21 Dec 23:52:40 23:56:35 26° 65° (ENE) 00:00:30 437.505
PCSat 21 Dec 23:52:43 23:57:09 26° 251° (WSW) 00:01:34 145.827
ITUPSAT 1 21 Dec 23:53:52 23:57:41 24° 64° (ENE) 00:01:31 437.325
TIGRISAT 21 Dec 23:54:26 23:58:39 34° 292° (WNW) 00:02:53 435.000
YUBILEINY 21 Dec 23:57:17 00:05:59 78° 95° (E) 00:14:42 435.215
BUGSAT 1 21 Dec 23:57:56 00:01:51 48° 288° (WNW) 00:05:47 437.445
TISAT 1 22 Dec 00:02:15 00:06:18 47° 260° (W) 00:10:23 437.305
DUCHIFAT 1 22 Dec 00:06:12 00:10:03 34° 291° (WNW) 00:13:53 145.980
SPROUT 22 Dec 00:10:27 00:14:31 42° 262° (W) 00:18:36 437.525
ESTCUBE 1 22 Dec 00:10:53 00:12:36 12° 271° (W) 00:14:19 437.505/2401.250
BEESAT 22 Dec 00:16:43 00:21:09 39° 69° (ENE) 00:25:36 436.000
AUBIESAT-1 22 Dec 00:20:13 00:24:22 29° 61° (ENE) 00:28:31 437.475
QB50P2 22 Dec 00:21:11 00:24:38 24° 294° (WNW) 00:28:05 145.880/145.840
UNISAT 6 22 Dec 00:25:12 00:28:24 19° 297° (WNW) 00:31:37 437.425
O/OREOS (USA 219) 22 Dec 00:25:20 00:29:40 54° 109° (ESE) 00:34:01 437.305
POLYITAN 1 22 Dec 00:30:49 00:33:57 20° 295° (WNW) 00:37:05 437.675
NANOSAT C BR1 22 Dec 00:31:44 00:34:49 20° 295° (WNW) 00:37:53 145.865
M-CUBED/EXP-1 PRIME 22 Dec 00:46:14 00:50:58 52° 66° (ENE) 00:55:44 437.505
QB50P1 22 Dec 00:47:03 00:49:22 14° 298° (WNW) 00:51:40 145.935-145.965
STARS 22 Dec 00:51:45 00:53:45 13° 60° (ENE) 00:55:44 437.465
KKS-1 22 Dec 00:57:12 01:00:31 21° 64° (ENE) 01:03:51 437.445
SWISSCUBE 22 Dec 01:29:46 01:34:15 39° 262° (W) 01:38:45 437.505
Oscar 19 22 Dec 01:30:17 01:35:19 46° 99° (E) 01:40:18 437.125/150
ITUPSAT 1 22 Dec 01:30:47 01:35:20 42° 261° (W) 01:39:55 437.325
ITAMSAT 1 22 Dec 01:49:53 01:54:14 27° 95° (E) 01:58:33 435.822/435.867
Gurwin Techsat 1B 22 Dec 01:54:28 01:58:12 19° 91° (E) 02:01:56 435.225
AUBIESAT-1 22 Dec 01:54:34 01:59:07 40° 257° (WSW) 02:03:43 437.475
BEESAT 22 Dec 01:55:11 01:59:06 25° 266° (W) 02:03:02 436.000
YUBILEINY 22 Dec 01:56:52 02:03:46 25° 297° (WNW) 02:10:42 435.215
O/OREOS (USA 219) 22 Dec 02:06:15 02:09:25 19° 308° (NW) 02:12:35 437.305
HORYU 2 22 Dec 02:20:05 02:20:57 10° 88° (E) 02:21:48 437.375
M-CUBED/EXP-1 PRIME 22 Dec 02:22:31 02:26:11 21° 263° (W) 02:29:54 437.505
STARS 22 Dec 02:25:16 02:29:38 74° 257° (WSW) 02:34:03 437.465
KKS-1 22 Dec 02:32:42 02:36:53 42° 261° (W) 02:41:07 437.445
VERMONT LUNAR 22 Dec 02:38:31 02:41:11 20° 157° (SSE) 02:43:52 437.305
PHONESAT 2.4 22 Dec 03:00:04 03:02:47 20° 156° (SSE) 03:05:29 2401.200-2431.200
AIST 1 22 Dec 03:03:22 03:07:25 40° 76° (ENE) 03:11:25
Oscar 19 22 Dec 03:10:11 03:14:23 25° 297° (WNW) 03:18:33 437.125/150
ITAMSAT 1 22 Dec 03:29:01 03:33:51 41° 292° (WNW) 03:38:40 435.822/435.867
Gurwin Techsat 1B 22 Dec 03:33:21 03:38:34 59° 289° (WNW) 03:43:46 435.225
AO-7 22 Dec 03:38:59 03:46:17 32° 95° (E) 03:53:31 29.400- 29.500
MOZHAYETS 4 22 Dec 03:53:15 03:57:41 46° 71° (ENE) 04:02:09
HORYU 2 22 Dec 03:53:39 03:58:12 82° 285° (WNW) 04:02:43 437.375
GONETS M04 22 Dec 03:59:55 04:05:39 20° 76° (ENE) 04:11:23
JAS-2 22 Dec 04:09:33 04:12:46 16° 87° (E) 04:15:51 435.910
VERMONT LUNAR 22 Dec 04:15:42 04:19:03 41° 173° (S) 04:22:24 437.305
SO-50 22 Dec 04:26:07 04:30:29 31° 44° (NE) 04:34:51 436.795
STRAND 1 22 Dec 04:37:07 04:39:11 13° 56° (NE) 04:41:15 437.568
PHONESAT 2.4 22 Dec 04:37:33 04:40:59 41° 173° (S) 04:44:26 2401.200-2431.200
AIST 1 22 Dec 04:41:52 04:44:45 18° 274° (W) 04:47:37
CUBESAT XI-V 22 Dec 05:21:35 05:25:38 30° 67° (ENE) 05:29:40 437.345
AO-7 22 Dec 05:31:18 05:39:31 63° 295° (WNW) 05:47:42 29.400- 29.500
CUTE-I 22 Dec 05:31:19 05:34:52 18° 91° (E) 05:38:25 437.470
MOZHAYETS 4 22 Dec 05:31:44 05:35:08 20° 268° (W) 05:38:34
HORYU 2 22 Dec 05:33:24 05:34:06 10° 303° (WNW) 05:34:47 437.375
PRISM 22 Dec 05:36:30 05:40:44 88° 75° (ENE) 05:44:59 437.425
GONETS M04 22 Dec 05:52:20 06:01:11 89° 97° (E) 06:10:05
JAS-2 22 Dec 05:53:00 05:58:38 68° 288° (WNW) 06:03:49 435.910
VERMONT LUNAR 22 Dec 05:53:46 05:57:04 37° 190° (S) 06:00:21 437.305
SO-50 22 Dec 06:06:32 06:11:10 43° 242° (WSW) 06:15:48 436.795
STRAND 1 22 Dec 06:12:27 06:17:34 83° 74° (ENE) 06:22:42 437.568
PHONESAT 2.4 22 Dec 06:15:58 06:19:22 39° 190° (S) 06:22:46 2401.200-2431.200
Cubesat XI-IV 22 Dec 06:37:17 06:42:37 70° 103° (ESE) 06:47:55 437.490
CUBESAT XI-V 22 Dec 06:58:53 07:03:01 31° 264° (W) 07:07:09 437.345
CUTE-I 22 Dec 07:10:07 07:15:23 64° 288° (WNW) 07:20:38 437.470
AO-7 22 Dec 07:25:55 07:30:41 17° 317° (NW) 07:35:27 29.400- 29.500
VERMONT LUNAR 22 Dec 07:32:38 07:34:50 16° 207° (SSW) 07:37:02 437.305
JAS-2 22 Dec 07:41:20 07:42:31 11° 309° (NW) 07:43:40 435.910
GONETS M04 22 Dec 07:52:51 07:59:18 22° 300° (WNW) 08:05:47
PHONESAT 2.4 22 Dec 07:55:06 07:57:32 17° 206° (SSW) 07:59:58 2401.200-2431.200
STRAND 1 22 Dec 07:55:13 07:57:23 13° 272° (W) 07:59:34 437.568
BRITE-PL 22 Dec 08:09:34 08:13:03 20° 93° (E) 08:16:42 437.365/2234.400
CANX-2 22 Dec 08:15:57 08:19:01 19° 92° (E) 08:22:03 2200.000
Cubesat XI-IV 22 Dec 08:18:37 08:22:09 18° 301° (WNW) 08:25:41 437.490
GOMX 1 22 Dec 08:26:39 08:30:19 21° 93° (E) 08:34:09 467.674
COMPASS 1 22 Dec 08:32:26 08:35:26 18° 92° (E) 08:38:24 437.405
SEEDS 22 Dec 08:40:06 08:43:44 26° 95° (E) 08:47:20 437.485
DOVE 4 22 Dec 08:43:16 08:47:06 23° 94° (E) 08:51:05 437.250
ANTELSAT 22 Dec 08:45:56 08:48:27 15° 61° (ENE) 08:51:00 437.575/2403.000
